E22FEY-1 Weather Reports


Display with metric or nautical units.
time (UTC)temp
F
wind
direction
speed
MPH
gust
MPH
rain 1hr
in
rain 24hr
in
rain mn
in
humidity
%
barometer
mb
20260504150654 89 0 0.0 0.0 0.00 0.00 0.00 61 1010.0
20260504140517 88 0 0.0 0.0 0.00 0.00 0.00 62 1009.0
20260504130340 88 0 0.0 0.0 0.00 0.00 0.00 64 1009.0
20260504120202 89 0 0.0 0.0 0.00 0.00 0.00 61 1007.0
20260504081059 103 0 0.0 0.0 0.00 0.00 0.00 39 1006.0
20260504050608 101 0 0.0 0.0 0.00 0.00 0.00 44 1009.0
20260504045043 102 0 0.0 0.0 0.00 0.00 0.00 43 1009.0
20260504043519 101 0 0.0 0.0 0.00 0.00 0.00 45 1009.0
20260504041955 103 0 0.0 0.0 0.00 0.00 0.00 42 1009.0
20260504040431 103 0 0.0 0.0 0.00 0.00 0.00 41 1010.0
20260504034907 103 0 0.0 0.0 0.00 0.00 0.00 42 1010.0
20260504033342 101 0 0.0 0.0 0.00 0.00 0.00 44 1010.0
20260504031818 101 0 0.0 0.0 0.00 0.00 0.00 44 1010.0
20260504030253 104 0 0.0 0.0 0.00 0.00 0.00 41 1010.0
20260504024729 104 0 0.0 0.0 0.00 0.00 0.00 40 1010.0
20260504023205 104 0 0.0 0.0 0.00 0.00 0.00 40 1010.0
20260504021641 105 0 0.0 0.0 0.00 0.00 0.00 40 1010.0
20260504020117 104 0 0.0 0.0 0.00 0.00 0.00 41 1010.0
20260504014553 105 0 0.0 0.0 0.00 0.00 0.00 42 1010.0
20260504013029 106 0 0.0 0.0 0.00 0.00 0.00 40 1010.0
20260504011504 106 0 0.0 0.0 0.00 0.00 0.00 40 1010.0
20260504005940 107 0 0.0 0.0 0.00 0.00 0.00 40 1010.0
20260504004416 109 0 0.0 0.0 0.00 0.00 0.00 38 1010.0
20260504002852 108 0 0.0 0.0 0.00 0.00 0.00 40 1010.0
20260504001328 103 0 0.0 0.0 0.00 0.00 0.00 45 1009.0
20260503235804 97 0 0.0 0.0 0.00 0.00 0.00 53 1009.0
20260503234239 92 0 0.0 0.0 0.00 0.00 0.00 62 1009.0
20260503232715 90 0 0.0 0.0 0.00 0.00 0.00 63 1009.0
20260503231151 90 0 0.0 0.0 0.00 0.00 0.00 64 1009.0
20260503225626 90 0 0.0 0.0 0.00 0.00 0.00 65 1009.0
20260503224102 91 0 0.0 0.0 0.00 0.00 0.00 64 1009.0
20260503222537 90 0 0.0 0.0 0.00 0.00 0.00 65 1008.0
20260503221013 90 0 0.0 0.0 0.00 0.00 0.00 66 1008.0
20260503215449 90 0 0.0 0.0 0.00 0.00 0.00 66 1008.0
20260503213924 90 0 0.0 0.0 0.00 0.00 0.00 64 1008.0
20260503212359 90 0 0.0 0.0 0.00 0.00 0.00 63 1008.0
20260503210835 90 0 0.0 0.0 0.00 0.00 0.00 64 1007.0
20260503205311 91 0 0.0 0.0 0.00 0.00 0.00 63 1008.0
20260503203747 91 0 0.0 0.0 0.00 0.00 0.00 63 1008.0
20260503202222 92 0 0.0 0.0 0.00 0.00 0.00 62 1008.0
20260503200658 91 0 0.0 0.0 0.00 0.00 0.00 63 1008.0
20260503195134 91 0 0.0 0.0 0.00 0.00 0.00 62 1008.0
20260503193609 91 0 0.0 0.0 0.00 0.00 0.00 63 1008.0
20260503192045 92 0 0.0 0.0 0.00 0.00 0.00 61 1008.0
20260503190520 92 0 0.0 0.0 0.00 0.00 0.00 60 1008.0
20260503184956 92 0 0.0 0.0 0.00 0.00 0.00 60 1008.0
20260503183431 91 0 0.0 0.0 0.00 0.00 0.00 61 1008.0
20260503181907 92 0 0.0 0.0 0.00 0.00 0.00 60 1008.0
20260503180343 92 0 0.0 0.0 0.00 0.00 0.00 60 1008.0
20260503174819 92 0 0.0 0.0 0.00 0.00 0.00 60 1008.0
20260503173255 93 0 0.0 0.0 0.00 0.00 0.00 60 1008.0
20260503171731 93 0 0.0 0.0 0.00 0.00 0.00 59 1009.0
20260503170207 93 0 0.0 0.0 0.00 0.00 0.00 60 1009.0